| time (UTC) | temp F | wind direction | speed MPH | gust MPH | rain 1hr in | rain 24hr in | rain mn in | humidity % | barometer mb |
| 20260903211523 | 93 | 34 | 0.0 | 2.0 | 0.00 | 0.00 | 0.00 | 54 | 1016.1 |
| 20260903211012 | 94 | 34 | 0.0 | 2.0 | 0.00 | 0.00 | 0.00 | 56 | 1016.1 |
| 20260903210513 | 95 | 34 | 0.0 | 5.0 | 0.00 | 0.00 | 0.00 | 50 | 1016.2 |
| 20260903210029 | 96 | 34 | 2.0 | 5.0 | 0.00 | 0.00 | 0.00 | 47 | 1016.2 |
| 20260903205517 | 97 | 315 | 1.0 | 3.0 | 0.00 | 0.00 | 0.00 | 47 | 1016.2 |
| 20260903205012 | 94 | 260 | 1.0 | 2.0 | 0.00 | 0.00 | 0.00 | 52 | 1016.3 |
| 20260903204528 | 92 | 260 | 0.0 | 1.0 | 0.00 | 0.00 | 0.00 | 60 | 1016.4 |
| 20260903204014 | 92 | 225 | 0.0 | 1.0 | 0.00 | 0.00 | 0.00 | 57 | 1016.4 |
| 20260903203514 | 93 | 333 | 0.0 | 4.0 | 0.00 | 0.00 | 0.00 | 56 | 1016.4 |
| 20260903203037 | 93 | 31 | 0.0 | 4.0 | 0.00 | 0.00 | 0.00 | 57 | 1016.5 |
| 20260903202516 | 93 | 31 | 1.0 | 4.0 | 0.00 | 0.00 | 0.00 | 53 | 1016.5 |
| 20260903202006 | 93 | 355 | 0.0 | 3.0 | 0.00 | 0.00 | 0.00 | 54 | 1016.5 |
| 20260903201518 | 94 | 355 | 2.0 | 3.0 | 0.00 | 0.00 | 0.00 | 55 | 1016.6 |
| 20260903201007 | 94 | 355 | 1.0 | 4.0 | 0.00 | 0.00 | 0.00 | 52 | 1016.7 |
| 20260903200511 | 95 | 355 | 2.0 | 5.0 | 0.00 | 0.00 | 0.00 | 50 | 1016.8 |
| 20260903200024 | 96 | 36 | 2.0 | 5.0 | 0.00 | 0.00 | 0.00 | 48 | 1016.8 |
| 20260903195512 | 96 | 42 | 1.0 | 4.0 | 0.00 | 0.00 | 0.00 | 48 | 1016.9 |
| 20260903195005 | 96 | 102 | 1.0 | 9.0 | 0.00 | 0.00 | 0.00 | 50 | 1017.0 |
| 20260903194503 | 97 | 11 | 3.0 | 9.0 | 0.00 | 0.00 | 0.00 | 46 | 1017.0 |
| 20260903194004 | 98 | 26 | 4.0 | 9.0 | 0.00 | 0.00 | 0.00 | 46 | 1016.9 |
| 20260903193502 | 97 | 224 | 2.0 | 5.0 | 0.00 | 0.00 | 0.00 | 47 | 1017.0 |
| 20260903193015 | 97 | 293 | 0.0 | 6.0 | 0.00 | 0.00 | 0.00 | 48 | 1017.0 |
| 20260903192505 | 95 | 292 | 0.0 | 6.0 | 0.00 | 0.00 | 0.00 | 49 | 1017.1 |
| 20260903192005 | 96 | 273 | 1.0 | 6.0 | 0.00 | 0.00 | 0.00 | 50 | 1017.2 |
| 20260903191522 | 96 | 132 | 0.0 | 7.0 | 0.00 | 0.00 | 0.00 | 47 | 1017.2 |
| 20260903191010 | 97 | 139 | 2.0 | 7.0 | 0.00 | 0.00 | 0.00 | 47 | 1017.3 |
| 20260903190508 | 97 | 329 | 2.0 | 9.0 | 0.00 | 0.00 | 0.00 | 46 | 1017.3 |
| 20260903190022 | 97 | 286 | 5.0 | 9.0 | 0.00 | 0.00 | 0.00 | 46 | 1017.3 |
| 20260903185510 | 97 | 5 | 3.0 | 8.0 | 0.00 | 0.00 | 0.00 | 49 | 1017.3 |
| 20260903185012 | 97 | 340 | 3.0 | 6.0 | 0.00 | 0.00 | 0.00 | 47 | 1017.4 |
| 20260903184526 | 97 | 18 | 2.0 | 7.0 | 0.00 | 0.00 | 0.00 | 48 | 1017.5 |
| 20260903184012 | 96 | 9 | 1.0 | 7.0 | 0.00 | 0.00 | 0.00 | 51 | 1017.7 |
| 20260903183515 | 96 | 5 | 3.0 | 8.0 | 0.00 | 0.00 | 0.00 | 48 | 1017.8 |
| 20260903183020 | 95 | 250 | 2.0 | 8.0 | 0.00 | 0.00 | 0.00 | 52 | 1017.8 |
| 20260903182504 | 96 | 238 | 2.0 | 7.0 | 0.00 | 0.00 | 0.00 | 48 | 1017.9 |
| 20260903182004 | 97 | 288 | 2.0 | 7.0 | 0.00 | 0.00 | 0.00 | 48 | 1017.9 |
| 20260903181509 | 97 | 360 | 2.0 | 8.0 | 0.00 | 0.00 | 0.00 | 50 | 1018.0 |
| 20260903181006 | 96 | 329 | 2.0 | 8.0 | 0.00 | 0.00 | 0.00 | 50 | 1018.1 |
| 20260903180504 | 96 | 345 | 2.0 | 7.0 | 0.00 | 0.00 | 0.00 | 51 | 1018.2 |
| 20260903180025 | 94 | 307 | 2.0 | 14.0 | 0.00 | 0.00 | 0.00 | 54 | 1018.2 |
| 20260903175508 | 94 | 26 | 6.0 | 14.0 | 0.00 | 0.00 | 0.00 | 52 | 1018.3 |
| 20260903175008 | 95 | 44 | 10.0 | 14.0 | 0.00 | 0.00 | 0.00 | 49 | 1018.2 |
| 20260903174524 | 96 | 225 | 2.0 | 4.0 | 0.00 | 0.00 | 0.00 | 52 | 1018.4 |
| 20260903174012 | 95 | 241 | 1.0 | 6.0 | 0.00 | 0.00 | 0.00 | 51 | 1018.5 |
| 20260903173512 | 95 | 270 | 2.0 | 6.0 | 0.00 | 0.00 | 0.00 | 50 | 1018.5 |
| 20260903173027 | 95 | 205 | 2.0 | 5.0 | 0.00 | 0.00 | 0.00 | 50 | 1018.5 |
| 20260903172515 | 95 | 230 | 3.0 | 5.0 | 0.00 | 0.00 | 0.00 | 49 | 1018.8 |
| 20260903172014 | 96 | 294 | 0.0 | 4.0 | 0.00 | 0.00 | 0.00 | 48 | 1018.8 |
| 20260903171542 | 94 | 14 | 2.0 | 4.0 | 0.00 | 0.00 | 0.00 | 49 | 1018.9 |
| 20260903171003 | 94 | 254 | 2.0 | 5.0 | 0.00 | 0.00 | 0.00 | 51 | 1018.9 |
| 20260903170504 | 93 | 144 | 2.0 | 5.0 | 0.00 | 0.00 | 0.00 | 54 | 1019.0 |
| 20260903170014 | 93 | 35 | 1.0 | 4.0 | 0.00 | 0.00 | 0.00 | 51 | 1019.1 |
| 20260903165509 | 93 | 15 | 2.0 | 4.0 | 0.00 | 0.00 | 0.00 | 51 | 1019.1 |
| 20260903165009 | 92 | 344 | 0.0 | 4.0 | 0.00 | 0.00 | 0.00 | 55 | 1019.1 |
| 20260903164519 | 92 | 9 | 2.0 | 6.0 | 0.00 | 0.00 | 0.00 | 55 | 1019.2 |
| 20260903164010 | 92 | 37 | 0.0 | 6.0 | 0.00 | 0.00 | 0.00 | 53 | 1019.2 |
| 20260903163514 | 93 | 345 | 2.0 | 5.0 | 0.00 | 0.00 | 0.00 | 51 | 1019.2 |
| 20260903163024 | 94 | 333 | 3.0 | 6.0 | 0.00 | 0.00 | 0.00 | 52 | 1019.2 |
| 20260903162511 | 95 | 315 | 2.0 | 8.0 | 0.00 | 0.00 | 0.00 | 49 | 1019.3 |
| 20260903162015 | 95 | 321 | 3.0 | 8.0 | 0.00 | 0.00 | 0.00 | 52 | 1019.3 |
| 20260903161528 | 94 | 11 | 1.0 | 4.0 | 0.00 | 0.00 | 0.00 | 54 | 1019.3 |
| 20260903161014 | 94 | 36 | 2.0 | 4.0 | 0.00 | 0.00 | 0.00 | 52 | 1019.3 |
| 20260903160514 | 93 | 252 | 1.0 | 3.0 | 0.00 | 0.00 | 0.00 | 53 | 1019.4 |
| 20260903160036 | 94 | 239 | 1.0 | 3.0 | 0.00 | 0.00 | 0.00 | 54 | 1019.4 |
| 20260903155518 | 93 | 244 | 0.0 | 3.0 | 0.00 | 0.00 | 0.00 | 55 | 1019.5 |
| 20260903155008 | 93 | 273 | 1.0 | 4.0 | 0.00 | 0.00 | 0.00 | 53 | 1019.5 |
| 20260903154513 | 93 | 277 | 2.0 | 4.0 | 0.00 | 0.00 | 0.00 | 53 | 1019.5 |
| 20260903154009 | 92 | 311 | 1.0 | 4.0 | 0.00 | 0.00 | 0.00 | 56 | 1019.5 |
| 20260903153507 | 91 | 229 | 2.0 | 4.0 | 0.00 | 0.00 | 0.00 | 55 | 1019.6 |
| 20260903153023 | 92 | 265 | 0.0 | 4.0 | 0.00 | 0.00 | 0.00 | 56 | 1019.6 |
| 20260903152512 | 91 | 264 | 1.0 | 4.0 | 0.00 | 0.00 | 0.00 | 58 | 1019.6 |
| 20260903152014 | 91 | 355 | 2.0 | 4.0 | 0.00 | 0.00 | 0.00 | 56 | 1019.6 |
| 20260903151528 | 91 | 213 | 1.0 | 3.0 | 0.00 | 0.00 | 0.00 | 58 | 1019.6 |
| 20260903151013 | 90 | 204 | 1.0 | 4.0 | 0.00 | 0.00 | 0.00 | 62 | 1019.7 |
| 20260903150514 | 90 | 204 | 2.0 | 4.0 | 0.00 | 0.00 | 0.00 | 60 | 1019.6 |
| 20260903150032 | 90 | 204 | 1.0 | 4.0 | 0.00 | 0.00 | 0.00 | 62 | 1019.5 |
| 20260903145515 | 89 | 223 | 2.0 | 4.0 | 0.00 | 0.00 | 0.00 | 63 | 1019.5 |
| 20260903145017 | 89 | 223 | 1.0 | 4.0 | 0.00 | 0.00 | 0.00 | 61 | 1019.5 |
| 20260903144534 | 90 | 223 | 2.0 | 4.0 | 0.00 | 0.00 | 0.00 | 63 | 1019.4 |
| 20260903144016 | 89 | 223 | 2.0 | 4.0 | 0.00 | 0.00 | 0.00 | 62 | 1019.4 |
| 20260903143507 | 88 | 223 | 1.0 | 3.0 | 0.00 | 0.00 | 0.00 | 67 | 1019.4 |
| 20260903143018 | 87 | 227 | 0.0 | 2.0 | 0.00 | 0.00 | 0.00 | 66 | 1019.5 |
| 20260903142511 | 86 | 227 | 0.0 | 3.0 | 0.00 | 0.00 | 0.00 | 72 | 1019.5 |
| 20260903142011 | 85 | 227 | 1.0 | 3.0 | 0.00 | 0.00 | 0.00 | 74 | 1019.5 |
| 20260903141523 | 85 | 227 | 1.0 | 3.0 | 0.00 | 0.00 | 0.00 | 76 | 1019.5 |
| 20260903141011 | 84 | 227 | 0.0 | 3.0 | 0.00 | 0.00 | 0.00 | 78 | 1019.5 |
| 20260903140512 | 83 | 227 | 0.0 | 2.0 | 0.00 | 0.00 | 0.00 | 80 | 1019.5 |
| 20260903140031 | 82 | 227 | 0.0 | 2.0 | 0.00 | 0.00 | 0.00 | 82 | 1019.4 |
| 20260903135512 | 81 | 18 | 0.0 | 2.0 | 0.00 | 0.00 | 0.00 | 85 | 1019.5 |
| 20260903135016 | 80 | 18 | 0.0 | 2.0 | 0.00 | 0.00 | 0.00 | 86 | 1019.5 |
| 20260903134531 | 80 | 18 | 0.0 | 2.0 | 0.00 | 0.00 | 0.00 | 88 | 1019.5 |
| 20260903134014 | 79 | 5 | 0.0 | 0.0 | 0.00 | 0.00 | 0.00 | 89 | 1019.5 |
| 20260903133517 | 78 | 5 | 0.0 | 0.0 | 0.00 | 0.00 | 0.00 | 90 | 1019.5 |
| 20260903133035 | 77 | 23 | 0.0 | 0.0 | 0.00 | 0.00 | 0.00 | 91 | 1019.6 |
| 20260903132519 | 77 | 30 | 0.0 | 0.0 | 0.00 | 0.00 | 0.00 | 93 | 1019.6 |
| 20260903132018 | 76 | 30 | 0.0 | 0.0 | 0.00 | 0.00 | 0.00 | 94 | 1019.7 |
| 20260903131522 | 75 | 326 | 0.0 | 0.0 | 0.00 | 0.00 | 0.00 | 95 | 1019.7 |
| 20260903131012 | 75 | 336 | 0.0 | 0.0 | 0.00 | 0.00 | 0.00 | 95 | 1019.7 |
| 20260903130511 | 74 | 60 | 0.0 | 0.0 | 0.00 | 0.00 | 0.00 | 95 | 1019.8 |
| 20260903130027 | 75 | 60 | 0.0 | 0.0 | 0.00 | 0.00 | 0.00 | 96 | 1019.8 |
| 20260903125515 | 74 | 60 | 0.0 | 0.0 | 0.00 | 0.00 | 0.00 | 97 | 1019.9 |
| 20260903125013 | 73 | 60 | 0.0 | 0.0 | 0.00 | 0.00 | 0.00 | 97 | 1019.9 |
| 20260903124529 | 72 | 60 | 0.0 | 0.0 | 0.00 | 0.00 | 0.00 | 97 | 1019.9 |
| 20260903124016 | 71 | 60 | 0.0 | 0.0 | 0.00 | 0.00 | 0.00 | 97 | 1019.9 |
| 20260903123520 | 71 | 60 | 0.0 | 0.0 | 0.00 | 0.00 | 0.00 | 96 | 1020.0 |
| 20260903123035 | 71 | 60 | 0.0 | 0.0 | 0.00 | 0.00 | 0.00 | 96 | 1019.9 |
| 20260903122519 | 71 | 60 | 0.0 | 0.0 | 0.00 | 0.00 | 0.00 | 96 | 1019.9 |
| 20260903122018 | 70 | 60 | 0.0 | 0.0 | 0.00 | 0.00 | 0.00 | 96 | 1019.8 |
| 20260903121541 | 70 | 60 | 0.0 | 0.0 | 0.00 | 0.00 | 0.00 | 96 | 1019.8 |
| 20260903121016 | 70 | 60 | 0.0 | 0.0 | 0.00 | 0.00 | 0.00 | 96 | 1019.7 |
| 20260903120516 | 69 | 60 | 0.0 | 1.0 | 0.00 | 0.00 | 0.00 | 96 | 1019.7 |
| 20260903120043 | 69 | 60 | 0.0 | 1.0 | 0.00 | 0.00 | 0.00 | 95 | 1019.6 |
| 20260903115516 | 69 | 60 | 0.0 | 0.0 | 0.00 | 0.00 | 0.00 | 95 | 1019.5 |
| 20260903115011 | 69 | 236 | 0.0 | 0.0 | 0.00 | 0.00 | 0.00 | 95 | 1019.4 |
| 20260903114528 | 69 | 273 | 0.0 | 0.0 | 0.00 | 0.00 | 0.00 | 95 | 1019.3 |
| 20260903114013 | 69 | 273 | 0.0 | 0.0 | 0.00 | 0.00 | 0.00 | 95 | 1019.4 |
| 20260903113516 | 69 | 273 | 0.0 | 0.0 | 0.00 | 0.00 | 0.00 | 94 | 1019.3 |
| 20260903113031 | 69 | 273 | 0.0 | 0.0 | 0.00 | 0.00 | 0.00 | 94 | 1019.3 |
| 20260903112518 | 69 | 273 | 0.0 | 0.0 | 0.00 | 0.00 | 0.00 | 94 | 1019.3 |
| 20260903112003 | 69 | 273 | 0.0 | 0.0 | 0.00 | 0.00 | 0.00 | 94 | 1019.2 |
| 20260903111506 | 69 | 273 | 0.0 | 0.0 | 0.00 | 0.00 | 0.00 | 94 | 1019.2 |
| 20260903111006 | 69 | 273 | 0.0 | 0.0 | 0.00 | 0.00 | 0.00 | 94 | 1019.2 |
| 20260903110503 | 69 | 273 | 0.0 | 0.0 | 0.00 | 0.00 | 0.00 | 94 | 1019.0 |
| 20260903110007 | 69 | 273 | 0.0 | 0.0 | 0.00 | 0.00 | 0.00 | 94 | 1018.9 |
| 20260903105502 | 70 | 273 | 0.0 | 0.0 | 0.00 | 0.00 | 0.00 | 94 | 1018.9 |
| 20260903105001 | 69 | 273 | 0.0 | 0.0 | 0.00 | 0.00 | 0.00 | 94 | 1018.8 |
| 20260903104504 | 69 | 273 | 0.0 | 0.0 | 0.00 | 0.00 | 0.00 | 94 | 1018.8 |
| 20260903104004 | 70 | 273 | 0.0 | 0.0 | 0.00 | 0.00 | 0.00 | 94 | 1018.7 |
| 20260903103502 | 70 | 273 | 0.0 | 0.0 | 0.00 | 0.00 | 0.00 | 94 | 1018.7 |
| 20260903103008 | 69 | 273 | 0.0 | 0.0 | 0.00 | 0.00 | 0.00 | 94 | 1018.7 |
| 20260903102503 | 69 | 273 | 0.0 | 0.0 | 0.00 | 0.00 | 0.00 | 94 | 1018.7 |
| 20260903102005 | 69 | 273 | 0.0 | 0.0 | 0.00 | 0.00 | 0.00 | 93 | 1018.7 |
| 20260903101510 | 70 | 273 | 0.0 | 0.0 | 0.00 | 0.00 | 0.00 | 93 | 1018.7 |
| 20260903101002 | 70 | 273 | 0.0 | 0.0 | 0.00 | 0.00 | 0.00 | 94 | 1018.6 |
| 20260903100506 | 70 | 273 | 0.0 | 0.0 | 0.00 | 0.00 | 0.00 | 94 | 1018.7 |
| 20260903100008 | 70 | 273 | 0.0 | 0.0 | 0.00 | 0.00 | 0.00 | 93 | 1018.7 |
| 20260903095503 | 70 | 273 | 0.0 | 0.0 | 0.00 | 0.00 | 0.00 | 93 | 1018.6 |
| 20260903095004 | 70 | 273 | 0.0 | 0.0 | 0.00 | 0.00 | 0.00 | 93 | 1018.6 |
| 20260903094511 | 70 | 273 | 0.0 | 0.0 | 0.00 | 0.00 | 0.00 | 93 | 1018.6 |
| 20260903094005 | 70 | 273 | 0.0 | 0.0 | 0.00 | 0.00 | 0.00 | 93 | 1018.6 |
| 20260903093504 | 70 | 273 | 0.0 | 0.0 | 0.00 | 0.00 | 0.00 | 93 | 1018.7 |
| 20260903093007 | 70 | 273 | 0.0 | 0.0 | 0.00 | 0.00 | 0.00 | 93 | 1018.7 |
| 20260903092506 | 70 | 273 | 0.0 | 0.0 | 0.00 | 0.00 | 0.00 | 93 | 1018.7 |
| 20260903092003 | 70 | 273 | 0.0 | 0.0 | 0.00 | 0.00 | 0.00 | 93 | 1018.7 |
| 20260903091514 | 70 | 273 | 0.0 | 0.0 | 0.00 | 0.00 | 0.00 | 93 | 1018.7 |
| 20260903091003 | 70 | 273 | 0.0 | 0.0 | 0.00 | 0.00 | 0.00 | 92 | 1018.8 |
| 20260903090503 | 70 | 273 | 0.0 | 0.0 | 0.00 | 0.00 | 0.00 | 92 | 1018.8 |
| 20260903090013 | 70 | 273 | 0.0 | 0.0 | 0.00 | 0.00 | 0.00 | 92 | 1018.8 |
| 20260903085506 | 70 | 273 | 0.0 | 0.0 | 0.00 | 0.00 | 0.00 | 92 | 1018.7 |
| 20260903085006 | 70 | 273 | 0.0 | 0.0 | 0.00 | 0.00 | 0.00 | 92 | 1018.8 |
| 20260903084514 | 70 | 273 | 0.0 | 0.0 | 0.00 | 0.00 | 0.00 | 92 | 1018.8 |
| 20260903084006 | 71 | 273 | 0.0 | 0.0 | 0.00 | 0.00 | 0.00 | 92 | 1018.8 |
| 20260903083507 | 71 | 273 | 0.0 | 0.0 | 0.00 | 0.00 | 0.00 | 92 | 1018.8 |
| 20260903083015 | 71 | 273 | 0.0 | 0.0 | 0.00 | 0.00 | 0.00 | 92 | 1018.7 |
| 20260903082507 | 71 | 273 | 0.0 | 0.0 | 0.00 | 0.00 | 0.00 | 91 | 1018.7 |
| 20260903082007 | 71 | 273 | 0.0 | 0.0 | 0.00 | 0.00 | 0.00 | 91 | 1018.7 |
| 20260903081507 | 71 | 273 | 0.0 | 0.0 | 0.00 | 0.00 | 0.00 | 91 | 1018.7 |
| 20260903081003 | 71 | 273 | 0.0 | 0.0 | 0.00 | 0.00 | 0.00 | 91 | 1018.7 |
| 20260903080504 | 71 | 273 | 0.0 | 0.0 | 0.00 | 0.00 | 0.00 | 91 | 1018.6 |
| 20260903080011 | 71 | 273 | 0.0 | 0.0 | 0.00 | 0.00 | 0.00 | 91 | 1018.6 |
| 20260903075507 | 71 | 273 | 0.0 | 0.0 | 0.00 | 0.00 | 0.00 | 91 | 1018.6 |
| 20260903075009 | 71 | 273 | 0.0 | 0.0 | 0.00 | 0.00 | 0.00 | 91 | 1018.6 |
| 20260903074516 | 71 | 273 | 0.0 | 0.0 | 0.00 | 0.00 | 0.00 | 91 | 1018.6 |
| 20260903074006 | 71 | 273 | 0.0 | 0.0 | 0.00 | 0.00 | 0.00 | 91 | 1018.5 |
| 20260903073508 | 71 | 273 | 0.0 | 0.0 | 0.00 | 0.00 | 0.00 | 91 | 1018.6 |
| 20260903073022 | 71 | 273 | 0.0 | 0.0 | 0.00 | 0.00 | 0.00 | 90 | 1018.6 |
| 20260903072508 | 71 | 273 | 0.0 | 0.0 | 0.00 | 0.00 | 0.00 | 90 | 1018.6 |
| 20260903072007 | 71 | 273 | 0.0 | 0.0 | 0.00 | 0.00 | 0.00 | 90 | 1018.5 |
| 20260903071522 | 72 | 273 | 0.0 | 0.0 | 0.00 | 0.00 | 0.00 | 90 | 1018.5 |
| 20260903071007 | 72 | 273 | 0.0 | 0.0 | 0.00 | 0.00 | 0.00 | 90 | 1018.5 |
| 20260903070508 | 72 | 273 | 0.0 | 0.0 | 0.00 | 0.00 | 0.00 | 91 | 1018.5 |
| 20260903070020 | 72 | 273 | 0.0 | 0.0 | 0.00 | 0.00 | 0.00 | 90 | 1018.5 |
| 20260903065504 | 72 | 273 | 0.0 | 0.0 | 0.00 | 0.00 | 0.00 | 90 | 1018.5 |
| 20260903065004 | 72 | 273 | 0.0 | 0.0 | 0.00 | 0.00 | 0.00 | 90 | 1018.5 |
| 20260903064516 | 72 | 273 | 0.0 | 0.0 | 0.00 | 0.00 | 0.00 | 90 | 1018.6 |
| 20260903064008 | 72 | 273 | 0.0 | 0.0 | 0.00 | 0.00 | 0.00 | 90 | 1018.6 |
| 20260903063508 | 72 | 273 | 0.0 | 0.0 | 0.00 | 0.00 | 0.00 | 90 | 1018.6 |
| 20260903063020 | 72 | 273 | 0.0 | 0.0 | 0.00 | 0.00 | 0.00 | 90 | 1018.6 |
| 20260903062511 | 72 | 273 | 0.0 | 0.0 | 0.00 | 0.00 | 0.00 | 90 | 1018.6 |
| 20260903062010 | 73 | 273 | 0.0 | 0.0 | 0.00 | 0.00 | 0.00 | 90 | 1018.6 |
| 20260903061536 | 73 | 273 | 0.0 | 0.0 | 0.00 | 0.00 | 0.00 | 90 | 1018.7 |
| 20260903061010 | 73 | 273 | 0.0 | 0.0 | 0.00 | 0.00 | 0.00 | 89 | 1018.7 |
| 20260903060510 | 73 | 273 | 0.0 | 0.0 | 0.00 | 0.00 | 0.00 | 89 | 1018.6 |
| 20260903060024 | 73 | 273 | 0.0 | 0.0 | 0.00 | 0.00 | 0.00 | 89 | 1018.6 |
| 20260903055510 | 73 | 273 | 0.0 | 0.0 | 0.00 | 0.00 | 0.00 | 89 | 1018.6 |
| 20260903055009 | 73 | 273 | 0.0 | 0.0 | 0.00 | 0.00 | 0.00 | 89 | 1018.7 |
| 20260903054524 | 73 | 273 | 0.0 | 0.0 | 0.00 | 0.00 | 0.00 | 89 | 1018.7 |
| 20260903054012 | 73 | 273 | 0.0 | 0.0 | 0.00 | 0.00 | 0.00 | 89 | 1018.7 |
| 20260903053507 | 73 | 273 | 0.0 | 0.0 | 0.00 | 0.00 | 0.00 | 89 | 1018.7 |
| 20260903053017 | 73 | 273 | 0.0 | 0.0 | 0.00 | 0.00 | 0.00 | 89 | 1018.7 |
| 20260903052508 | 73 | 273 | 0.0 | 0.0 | 0.00 | 0.00 | 0.00 | 89 | 1018.7 |
| 20260903052011 | 74 | 273 | 0.0 | 0.0 | 0.00 | 0.00 | 0.00 | 88 | 1018.7 |
| 20260903051523 | 74 | 273 | 0.0 | 0.0 | 0.00 | 0.00 | 0.00 | 88 | 1018.8 |
| 20260903051009 | 74 | 273 | 0.0 | 0.0 | 0.00 | 0.00 | 0.00 | 88 | 1018.7 |
| 20260903050513 | 74 | 273 | 0.0 | 0.0 | 0.00 | 0.00 | 0.00 | 88 | 1018.7 |
| 20260903050025 | 74 | 273 | 0.0 | 0.0 | 0.00 | 0.00 | 0.00 | 88 | 1018.7 |
| 20260903045512 | 74 | 273 | 0.0 | 0.0 | 0.00 | 0.00 | 0.00 | 88 | 1018.7 |
| 20260903045015 | 74 | 273 | 0.0 | 0.0 | 0.00 | 0.00 | 0.00 | 88 | 1018.6 |
| 20260903044527 | 74 | 273 | 0.0 | 0.0 | 0.00 | 0.00 | 0.00 | 88 | 1018.6 |
| 20260903044010 | 74 | 273 | 0.0 | 0.0 | 0.00 | 0.00 | 0.00 | 88 | 1018.7 |
| 20260903043510 | 74 | 273 | 0.0 | 0.0 | 0.00 | 0.00 | 0.00 | 88 | 1018.7 |
| 20260903043029 | 74 | 273 | 0.0 | 0.0 | 0.00 | 0.00 | 0.00 | 88 | 1018.7 |
| 20260903042514 | 75 | 273 | 0.0 | 0.0 | 0.00 | 0.00 | 0.00 | 88 | 1018.7 |
| 20260903042013 | 75 | 273 | 0.0 | 0.0 | 0.00 | 0.00 | 0.00 | 88 | 1018.7 |
| 20260903041530 | 75 | 273 | 0.0 | 0.0 | 0.00 | 0.00 | 0.00 | 88 | 1018.7 |
| 20260903041005 | 75 | 273 | 0.0 | 0.0 | 0.00 | 0.00 | 0.00 | 88 | 1018.7 |
| 20260903040510 | 75 | 273 | 0.0 | 0.0 | 0.00 | 0.00 | 0.00 | 87 | 1018.7 |
| 20260903040003 | 75 | 273 | 0.0 | 0.0 | 0.00 | 0.00 | 0.00 | 87 | 1018.8 |
| 20260903035503 | 75 | 273 | 0.0 | 0.0 | 0.00 | 0.00 | 0.00 | 87 | 1018.8 |
| 20260903035003 | 75 | 273 | 0.0 | 0.0 | 0.00 | 0.00 | 0.00 | 87 | 1018.8 |
| 20260903034507 | 75 | 273 | 0.0 | 0.0 | 0.00 | 0.00 | 0.00 | 86 | 1018.9 |
| 20260903034002 | 75 | 273 | 0.0 | 0.0 | 0.00 | 0.00 | 0.00 | 86 | 1018.8 |
| 20260903033502 | 76 | 273 | 0.0 | 0.0 | 0.00 | 0.00 | 0.00 | 85 | 1018.9 |
| 20260903033017 | 76 | 273 | 0.0 | 0.0 | 0.00 | 0.00 | 0.00 | 85 | 1018.8 |
| 20260903032506 | 76 | 273 | 0.0 | 0.0 | 0.00 | 0.00 | 0.00 | 85 | 1018.8 |
| 20260903032007 | 76 | 273 | 0.0 | 0.0 | 0.00 | 0.00 | 0.00 | 85 | 1018.8 |
| 20260903031525 | 76 | 273 | 0.0 | 0.0 | 0.00 | 0.00 | 0.00 | 84 | 1018.8 |
| 20260903031007 | 76 | 273 | 0.0 | 0.0 | 0.00 | 0.00 | 0.00 | 84 | 1018.9 |
| 20260903030507 | 76 | 273 | 0.0 | 0.0 | 0.00 | 0.00 | 0.00 | 85 | 1018.9 |
| 20260903030017 | 77 | 273 | 0.0 | 0.0 | 0.00 | 0.00 | 0.00 | 84 | 1018.9 |
| 20260903025510 | 77 | 273 | 0.0 | 0.0 | 0.00 | 0.00 | 0.00 | 83 | 1018.9 |
| 20260903025009 | 77 | 273 | 0.0 | 1.0 | 0.00 | 0.00 | 0.00 | 84 | 1018.9 |
| 20260903024504 | 77 | 273 | 0.0 | 1.0 | 0.00 | 0.00 | 0.00 | 83 | 1018.9 |
| 20260903024004 | 77 | 273 | 0.0 | 1.0 | 0.00 | 0.00 | 0.00 | 83 | 1018.7 |
| 20260903023503 | 77 | 273 | 0.0 | 0.0 | 0.00 | 0.00 | 0.00 | 83 | 1018.7 |
| 20260903023006 | 77 | 273 | 0.0 | 0.0 | 0.00 | 0.00 | 0.00 | 83 | 1018.7 |
| 20260903022502 | 77 | 273 | 0.0 | 0.0 | 0.00 | 0.00 | 0.00 | 83 | 1018.8 |
| 20260903022006 | 77 | 273 | 0.0 | 0.0 | 0.00 | 0.00 | 0.00 | 82 | 1018.9 |
| 20260903021517 | 78 | 273 | 0.0 | 0.0 | 0.00 | 0.00 | 0.00 | 82 | 1018.8 |
| 20260903021006 | 78 | 273 | 0.0 | 0.0 | 0.00 | 0.00 | 0.00 | 81 | 1018.7 |
| 20260903020508 | 78 | 273 | 0.0 | 0.0 | 0.00 | 0.00 | 0.00 | 81 | 1018.7 |
| 20260903020033 | 78 | 273 | 0.0 | 2.0 | 0.00 | 0.00 | 0.00 | 81 | 1018.7 |
| 20260903015509 | 78 | 273 | 0.0 | 3.0 | 0.00 | 0.00 | 0.00 | 80 | 1018.7 |
| 20260903015011 | 79 | 273 | 1.0 | 3.0 | 0.00 | 0.00 | 0.00 | 80 | 1018.7 |
| 20260903014523 | 79 | 273 | 0.0 | 1.0 | 0.00 | 0.00 | 0.00 | 79 | 1018.7 |
| 20260903014011 | 79 | 273 | 0.0 | 1.0 | 0.00 | 0.00 | 0.00 | 79 | 1018.7 |
| 20260903013514 | 79 | 273 | 0.0 | 0.0 | 0.00 | 0.00 | 0.00 | 78 | 1018.6 |
| 20260903013027 | 79 | 273 | 0.0 | 0.0 | 0.00 | 0.00 | 0.00 | 78 | 1018.6 |
| 20260903012502 | 80 | 273 | 0.0 | 1.0 | 0.00 | 0.00 | 0.00 | 78 | 1018.6 |
| 20260903012008 | 80 | 273 | 0.0 | 1.0 | 0.00 | 0.00 | 0.00 | 77 | 1018.4 |
| 20260903011510 | 80 | 273 | 0.0 | 2.0 | 0.00 | 0.00 | 0.00 | 77 | 1018.2 |
| 20260903011006 | 81 | 273 | 0.0 | 3.0 | 0.00 | 0.00 | 0.00 | 76 | 1018.2 |
| 20260903010506 | 81 | 273 | 1.0 | 3.0 | 0.00 | 0.00 | 0.00 | 76 | 1018.3 |
| 20260903010017 | 81 | 273 | 0.0 | 2.0 | 0.00 | 0.00 | 0.00 | 74 | 1018.2 |
| 20260903005506 | 82 | 273 | 0.0 | 1.0 | 0.00 | 0.00 | 0.00 | 73 | 1018.2 |
| 20260903005010 | 82 | 273 | 0.0 | 1.0 | 0.00 | 0.00 | 0.00 | 73 | 1018.2 |
| 20260903004523 | 83 | 273 | 0.0 | 2.0 | 0.00 | 0.00 | 0.00 | 72 | 1018.2 |
| 20260903004010 | 83 | 273 | 0.0 | 2.0 | 0.00 | 0.00 | 0.00 | 71 | 1018.1 |
| 20260903003513 | 84 | 273 | 0.0 | 2.0 | 0.00 | 0.00 | 0.00 | 70 | 1018.1 |
| 20260903003026 | 84 | 273 | 0.0 | 0.0 | 0.00 | 0.00 | 0.00 | 69 | 1018.1 |
| 20260903002512 | 85 | 273 | 0.0 | 0.0 | 0.00 | 0.00 | 0.00 | 69 | 1018.1 |
| 20260903002014 | 85 | 273 | 0.0 | 0.0 | 0.00 | 0.00 | 0.00 | 69 | 1018.2 |
| 20260903001525 | 86 | 273 | 0.0 | 1.0 | 0.00 | 0.00 | 0.00 | 67 | 1018.2 |
| 20260903001017 | 86 | 273 | 0.0 | 1.0 | 0.00 | 0.00 | 0.00 | 64 | 1018.1 |
| 20260903000506 | 87 | 273 | 0.0 | 0.0 | 0.00 | 0.00 | 0.00 | 63 | 1018.1 |
| 20260903000012 | 88 | 273 | 0.0 | 0.0 | 0.00 | 0.00 | 0.00 | 62 | 1018.2 |
| 20260902235506 | 88 | 273 | 0.0 | 0.0 | 0.00 | 0.00 | 0.00 | 61 | 1018.2 |
| 20260902235010 | 89 | 273 | 0.0 | 0.0 | 0.00 | 0.00 | 0.00 | 60 | 1018.2 |
| 20260902234520 | 90 | 273 | 0.0 | 1.0 | 0.00 | 0.00 | 0.00 | 59 | 1018.2 |
| 20260902234010 | 91 | 273 | 0.0 | 1.0 | 0.00 | 0.00 | 0.00 | 59 | 1018.0 |
| 20260902233511 | 91 | 252 | 0.0 | 1.0 | 0.00 | 0.00 | 0.00 | 57 | 1018.0 |
| 20260902233030 | 91 | 251 | 0.0 | 2.0 | 0.00 | 0.00 | 0.00 | 57 | 1018.0 |
| 20260902232510 | 92 | 219 | 1.0 | 2.0 | 0.00 | 0.00 | 0.00 | 55 | 1018.0 |
| 20260902232015 | 92 | 219 | 0.0 | 2.0 | 0.00 | 0.00 | 0.00 | 53 | 1018.0 |
| 20260902231541 | 92 | 219 | 0.0 | 1.0 | 0.00 | 0.00 | 0.00 | 53 | 1017.9 |
| 20260902231017 | 93 | 219 | 0.0 | 1.0 | 0.00 | 0.00 | 0.00 | 55 | 1018.0 |
| 20260902230515 | 93 | 219 | 0.0 | 2.0 | 0.00 | 0.00 | 0.00 | 52 | 1018.0 |
| 20260902230031 | 93 | 219 | 0.0 | 2.0 | 0.00 | 0.00 | 0.00 | 50 | 1018.1 |
| 20260902225519 | 94 | 219 | 0.0 | 2.0 | 0.00 | 0.00 | 0.00 | 52 | 1018.1 |
| 20260902225006 | 94 | 219 | 1.0 | 2.0 | 0.00 | 0.00 | 0.00 | 48 | 1018.0 |
| 20260902224516 | 94 | 219 | 1.0 | 3.0 | 0.00 | 0.00 | 0.00 | 49 | 1018.0 |
| 20260902224009 | 95 | 219 | 1.0 | 3.0 | 0.00 | 0.00 | 0.00 | 48 | 1018.0 |
| 20260902223510 | 95 | 32 | 0.0 | 3.0 | 0.00 | 0.00 | 0.00 | 47 | 1018.1 |
| 20260902223034 | 95 | 284 | 0.0 | 3.0 | 0.00 | 0.00 | 0.00 | 49 | 1018.1 |
| 20260902222512 | 95 | 281 | 0.0 | 4.0 | 0.00 | 0.00 | 0.00 | 51 | 1018.1 |
| 20260902222016 | 95 | 281 | 0.0 | 4.0 | 0.00 | 0.00 | 0.00 | 51 | 1018.1 |
| 20260902221530 | 95 | 325 | 1.0 | 4.0 | 0.00 | 0.00 | 0.00 | 49 | 1018.2 |
| 20260902221013 | 95 | 325 | 2.0 | 4.0 | 0.00 | 0.00 | 0.00 | 50 | 1018.3 |
| 20260902220514 | 95 | 327 | 0.0 | 4.0 | 0.00 | 0.00 | 0.00 | 48 | 1018.3 |
| 20260902220007 | 95 | 221 | 1.0 | 4.0 | 0.00 | 0.00 | 0.00 | 48 | 1018.3 |
| 20260902215503 | 95 | 306 | 1.0 | 6.0 | 0.00 | 0.00 | 0.00 | 50 | 1018.3 |
| 20260902215008 | 95 | 229 | 1.0 | 8.0 | 0.00 | 0.00 | 0.00 | 51 | 1018.2 |
| 20260902214506 | 95 | 219 | 4.0 | 8.0 | 0.00 | 0.00 | 0.00 | 49 | 1018.2 |
| 20260902214002 | 95 | 263 | 1.0 | 6.0 | 0.00 | 0.00 | 0.00 | 51 | 1018.2 |
| 20260902213501 | 95 | 269 | 1.0 | 5.0 | 0.00 | 0.00 | 0.00 | 50 | 1018.2 |
| 20260902213002 | 95 | 343 | 2.0 | 8.0 | 0.00 | 0.00 | 0.00 | 47 | 1018.2 |
| 20260902212502 | 95 | 287 | 3.0 | 8.0 | 0.00 | 0.00 | 0.00 | 49 | 1018.2 |
| 20260902212002 | 96 | 280 | 1.0 | 8.0 | 0.00 | 0.00 | 0.00 | 48 | 1018.3 |